This demonstration page uses our WeatherBlox Daily Observations layout. Learn more.

Left ArrowRight Arrow

39.29038, -76.61219

Hourly Observations for February 25, 2019

Temp ( °F °C ) Dew Point ( °F °C ) Humidity (%) Winds ( mph kmh ) Pressure ( in mb ) Visibility ( mi km ) Precip ( " mm )
12:54 am 00:54 undefined 45 7.2 16 -8.9 31 31 undefined N/A 29.70 1006 N/A N/A
1:54 am 01:54 undefined 44 6.7 14 -10 30 30 undefined N/A 29.72 1006 N/A N/A
2:54 am 02:54 undefined 43 6.1 10 -12.2 26 26 undefined N/A 29.74 1007 N/A N/A
3:54 am 03:54 undefined 41 5 10 -12.2 28 28 undefined N/A 29.77 1008 N/A N/A
4:54 am 04:54 undefined 41 5 8 -13.3 25 25 undefined N/A 29.78 1009 N/A N/A
5:54 am 05:54 undefined 39 3.9 8 -13.3 28 28 undefined N/A 29.83 1010 N/A N/A
6:54 am 06:54 undefined 39 3.9 7 -13.9 26 26 undefined N/A 29.87 1012 N/A N/A
7:54 am 07:54 undefined 39 3.9 4 -15.6 23 23 undefined N/A 29.95 1014 N/A N/A
8:54 am 08:54 undefined 40 4.4 4 -15.6 22 22 undefined N/A 29.98 1015 N/A N/A
9:54 am 09:54 undefined 41 5 4 -15.6 21 21 undefined N/A 30.01 1016 N/A N/A
10:54 am 10:54 undefined 42 5.6 5 -15 21 21 undefined N/A 30.04 1017 N/A N/A
11:54 am 11:54 undefined 44 6.7 6 -14.4 21 21 undefined N/A 30.08 1019 N/A N/A
12:54 pm 12:54 undefined 45 7.2 6 -14.4 20 20 undefined N/A 30.09 1019 N/A N/A
1:54 pm 13:54 undefined 46 7.8 4 -15.6 17 17 undefined N/A 30.09 1019 N/A N/A
2:54 pm 14:54 undefined 46 7.8 3 -16.1 17 17 undefined N/A 30.08 1019 N/A N/A
3:54 pm 15:54 undefined 46 7.8 2 -16.7 16 16 undefined N/A 30.08 1019 N/A N/A
4:54 pm 16:54 undefined 45 7.2 2 -16.7 16 16 undefined N/A 30.13 1020 N/A N/A
5:54 pm 17:54 undefined 44 6.7 2 -16.7 17 17 undefined N/A 30.17 1022 N/A N/A
6:54 pm 18:54 undefined 42 5.6 4 -15.6 20 20 undefined N/A 30.22 1023 N/A N/A
7:54 pm 19:54 undefined 41 5 5 -15 22 22 undefined N/A 30.24 1024 N/A N/A
8:54 pm 20:54 undefined 40 4.4 7 -13.9 25 25 undefined N/A 30.26 1025 N/A N/A
9:54 pm 21:54 undefined 40 4.4 4 -15.6 22 22 undefined N/A 30.28 1025 N/A N/A
10:54 pm 22:54 undefined 39 3.9 3 -16.1 22 22 undefined N/A 30.30 1026 N/A N/A
11:54 pm 23:54 undefined 38 3.3 2 -16.7 22 22 undefined N/A 30.30 1026 N/A N/A

Powered by AerisWeather